カタログに戻る

ST5-A

運用中科学UNKNOWN
NORAD 28980·PAYLOAD·🇺🇸 United States

打ち上げ Mar 22, 2006 から Vandenberg Space Force Base

Loading…

次のパス (今後24時間)

TLE

最新Source: Space-Track

元期: Sep 14, 2026, 14:48 UTC

1 28980U 06008A   26257.61676312  .00021734  30055-5  79846-3 0  9997
2 28980 105.5045 311.9948 1612435 156.9614 211.2886 12.22783437833605

AllMySatでST5-Aをリアルタイム追跡

Download on the App Store